This is the latest recevied weather packets stored in our database for station/object AA4XD. If no packets are shown the sender has not sent any weather packets the latest 10 day(s).
| Time | Temp. | Humidity | Pressure | Rain* | Wind** | Luminosity | Snow |
|---|---|---|---|---|---|---|---|
| 1777466384 | 22.78° C | 81% | 1016.8 hPa | 0 mm | - | 196 W/m² | - |
| 1777466080 | 22.22° C | 82% | 1016.8 hPa | 0 mm | - | 182 W/m² | - |
| 1777465777 | 22.22° C | 83% | 1016.7 hPa | 0 mm | - | 129 W/m² | - |
| 1777465473 | 21.67° C | 86% | 1016.9 hPa | 0 mm | - | 136 W/m² | - |
| 1777465171 | 21.11° C | 87% | 1016.8 hPa | 0 mm | - | 100 W/m² | - |
| 1777464867 | 20.56° C | 88% | 1017.1 hPa | 0 mm | - | 77 W/m² | - |
| 1777464562 | 20.56° C | 88% | 1017 hPa | 0 mm | - | 69 W/m² | - |
| 1777464259 | 20.56° C | 87% | 1017 hPa | 0 mm | - | 73 W/m² | - |
| 1777463954 | 20.56° C | 88% | 1016.8 hPa | 0 mm | - | 57 W/m² | - |
| 1777463650 | 20° C | 88% | 1016.8 hPa | 0 mm | - | 53 W/m² | - |
| 1777463344 | 20° C | 89% | 1016.9 hPa | 0 mm | - | 44 W/m² | - |
| 1777463041 | 20° C | 90% | 1016.7 hPa | 0 mm | - | 48 W/m² | - |
| 1777462736 | 19.44° C | 90% | 1016.5 hPa | 0 mm | - | 49 W/m² | - |
| 1777462432 | 19.44° C | 91% | 1016.6 hPa | 0 mm | - | 43 W/m² | - |
| 1777462129 | 19.44° C | 90% | 1016.7 hPa | 0 mm | - | 33 W/m² | - |
| 1777461825 | 19.44° C | 90% | 1016.6 hPa | 0 mm | - | 23 W/m² | - |
| 1777461521 | 19.44° C | 91% | 1016.5 hPa | 0 mm | - | 14 W/m² | - |
| 1777461218 | 18.89° C | 91% | 1016.2 hPa | 0 mm | - | 10 W/m² | - |
| 1777460913 | 18.89° C | 91% | 1016.1 hPa | 0 mm | - | 7 W/m² | - |
| 1777460609 | 18.89° C | 91% | 1015.8 hPa | 0 mm | - | 6 W/m² | - |
| 1777460305 | 18.89° C | 91% | 1015.7 hPa | 0 mm | - | 4 W/m² | - |
| 1777460002 | 18.89° C | 91% | 1015.5 hPa | 0 mm | - | 2 W/m² | - |
| 1777459698 | 18.89° C | 91% | 1015.4 hPa | 0 mm | - | 1 W/m² | - |
| 1777459395 | 18.89° C | 91% | 1015 hPa | 0 mm | - | 1 W/m² | - |
| 1777459093 | 18.89° C | 91% | 1015 hPa | 0 mm | - | 0 W/m² | - |
* Rain latest hour (hover to see other rain measurements)
** Current wind speed in m/s (hover to see current wind gust speed)